Location: El Chorro
(10.0985°N, 67.3542°W)
Time: 18:17:39
(UTC+00:00)

Meteor 1-27 - Pass Details

Date: 15 November 2025
Orbit: 838 x 890 km, 81.3° (Epoch: 06 December)

Event Time Altitude Azimuth Distance (km) Brightness Sun altitude
Rises 23:16:06 0° 172° (S) 3,439 7.5 -17.8°
Reaches altitude 10° 23:18:37 10° 165° (SSE) 2,510 6.7 -18.4°
Maximum altitude 23:24:03 46° 94° (E) 1,166 4.5 -19.7°
Enters shadow 23:26:05 33° 46° (NE) 1,439 4.9 -20.1°
